EST,Max TemperatureF,Mean TemperatureF,Min TemperatureF,Max Dew PointF,MeanDew PointF,Min DewpointF,Max Humidity, Mean Humidity, Min Humidity, Max Sea Level PressureIn, Mean Sea Level PressureIn, Min Sea Level PressureIn, Max VisibilityMiles, Mean VisibilityMiles, Min VisibilityMiles, Max Wind SpeedMPH, Mean Wind SpeedMPH, Max Gust SpeedMPH,PrecipitationIn, CloudCover, Events, WindDirDegrees
2014-2-1,81,76,71,72,71,70,96,85,72,30.12,30.07,30.04,10,10,9,13,6,,0.00,4,,84
2014-2-2,82,78,73,72,70,68,87,80,67,30.12,30.06,30.02,10,10,9,15,12,,0.00,1,,101
2014-2-3,84,80,75,73,72,71,91,82,67,30.09,30.04,30.01,10,10,9,13,11,,0.00,2,,114
2014-2-4,82,78,75,73,72,71,89,81,69,30.09,30.04,30.01,10,10,10,17,12,24,0.00,2,,112
2014-2-5,82,78,75,74,73,71,94,82,69,30.09,30.05,30.01,10,10,9,14,10,,0.00,4,,145
2014-2-6,84,78,73,72,70,65,91,80,67,30.10,30.06,30.02,10,10,10,12,6,,0.00,1,,119
2014-2-7,82,78,73,72,70,67,94,83,69,30.12,30.06,30.04,10,10,10,12,6,,0.00,3,,80
2014-2-8,82,77,72,73,71,69,97,83,69,30.09,30.06,30.01,10,9,2,14,6,,0.00,4,,70
2014-2-9,82,76,69,70,68,66,94,85,58,30.10,30.05,30.01,10,10,9,15,8,,0.00,4,,2
2014-2-10,79,74,69,70,68,66,90,83,72,30.09,30.04,30.01,10,10,10,9,7,,0.00,4,,10
2014-2-11,81,75,69,70,68,65,93,82,67,30.09,30.04,30.01,10,10,9,9,5,,0.00,1,,21
2014-2-12,82,76,69,73,70,66,96,84,69,30.02,29.93,29.83,10,8,2,22,8,38,0.62,6,Rain-Thunderstorm,165
2014-2-13,77,72,66,70,63,53,88,74,61,30.00,29.89,29.80,10,10,5,22,16,29,0.01,5,Rain,297
2014-2-14,69,66,63,60,55,50,84,69,52,30.07,30.02,29.96,10,10,10,9,6,,0.00,4,,19
2014-2-15,79,70,62,64,61,57,94,71,54,30.16,30.08,30.01,10,10,10,15,7,21,0.00,3,,314
2014-2-16,72,68,64,55,49,40,68,52,31,30.20,30.15,30.10,10,10,10,12,9,,0.00,0,,4
2014-2-17,79,72,66,63,61,57,81,71,60,30.20,30.16,30.12,10,10,10,15,8,20,0.00,0,,57
2014-2-18,80,74,68,66,63,60,84,67,56,30.21,30.16,30.13,10,10,10,17,12,22,0.00,1,,86
2014-2-19,81,77,73,69,65,63,85,70,58,30.14,30.10,30.06,10,10,10,17,13,21,0.00,2,,103
2014-2-20,82,77,72,72,71,69,91,81,69,30.12,30.07,30.04,10,10,9,17,11,21,0.00,2,,99
2014-2-21,82,78,75,73,72,71,91,82,67,30.09,30.05,30.01,10,9,2,16,11,,0.00,2,,132
2014-2-22,84,78,73,73,71,70,94,82,67,30.12,30.06,30.01,10,10,8,9,7,,0.01,3,,121
2014-2-23,82,78,73,72,71,70,91,81,69,30.09,30.05,30.01,10,10,10,9,6,,0.00,2,,108
2014-2-24,80,76,73,72,71,68,91,84,67,30.07,30.03,30.00,10,10,10,9,3,,0.00,4,,346
2014-2-25,80,76,71,72,69,67,94,82,64,30.06,30.01,29.96,10,10,8,12,7,,0.04,2,,2
2014-2-26,81,76,70,71,70,68,97,83,72,29.98,29.90,29.82,10,10,6,15,6,,0.00,2,,231
2014-2-27,78,73,68,72,68,63,94,81,71,29.94,29.88,29.83,10,10,5,21,13,28,0.06,6,Rain,318
2014-2-28,73,70,66,66,63,61,90,80,71,30.09,30.01,29.91,10,10,6,12,7,,0.11,6,Rain,10